Dania, FL

11:47 PM EST on February 25, 2017 (GMT -0500)
Fort Lauderdale-Hollywood International

Weather History for KFLL - April, 2014

Change the Weather History Date:

Tuesday, April 8, 2014

  Actual Average Record
Temperature  
Mean Temperature 81 °F 75 °F  
Max Temperature 92 °F 82 °F 92 °F (2014)
Min Temperature 69 °F 69 °F 42 °F (1971)
Degree Days  
Heating Degree Days 0 0  
Month to date heating degree days 0 0  
Since 1 July heating degree days 81 111  
Cooling Degree Days 16 10  
Month to date cooling degree days 99 80  
Year to date cooling degree days 759 690  
Growing Degree Days 30 (Base 50)    
Moisture  
Dew Point 74 °F    
Average Humidity 78    
Maximum Humidity 100    
Minimum Humidity 56    
Precipitation  
Precipitation 0.26 in 0.11 in 3.02 in (1941)
Month to date precipitation 0.26 0.91  
Year to date precipitation 8.43 10.86  
Snow  
Snow 0.00 in - - ()
Month to date snowfall 0.0  
Since 1 July snowfall 0.0  
Snow Depth 0.00 in    
Sea Level Pressure  
Sea Level Pressure 29.85 in    
Wind  
Wind Speed 15 mph (SW)    
Max Wind Speed 32 mph    
Max Gust Speed 42 mph    
Visibility 9 miles    
Events Rain    
T = Trace of Precipitation, MM = Missing Value Source: NWS Daily Summary

Daily Weather History Graph

Daily Weather History Graph

Search for Another Location

Airport or City:

Trip Planner

Search our weather history database for the weather conditions in past years. The results will help you decide how hot, cold, wet, or windy it might be!

Date:

Astronomy

Apr. 08, 2014 Rise Set
Actual Time 7:04 AM EDT 7:40 PM EDT
Civil Twilight 6:41 AM EDT 8:04 PM EDT
Nautical Twilight 6:13 AM EDT 8:31 PM EDT
Astronomical Twilight 5:45 AM EDT 8:59 PM EDT
Moon 2:05 PM EDT (4/8) 2:42 AM EDT (4/8)
Length of Visible Light 13h 23m
Length of Day
12h 36m
Waxing Gibbous, 62% of the Moon is Illuminated
Apr 8
Waxing Gibbous
Apr 15
Full
Apr 22
Last Quarter
Apr 29
New
May 6
First Quarter

Hourly Weather History & Observations

Time (EDT) Temp. Heat Index Dew Point Humidity Pressure Visibility Wind Dir Wind Speed Gust Speed Precip Events Conditions
12:53 AM 80.1 °F 86.4 °F 78.1 °F 94% 29.92 in 9.0 mi South 10.4 mph - N/A   Overcast
1:12 AM 80.1 °F 86.4 °F 78.1 °F 94% 29.92 in 9.0 mi South 10.4 mph - N/A   Overcast
1:53 AM 78.1 °F - 77.0 °F 96% 29.91 in 6.0 mi South 16.1 mph 24.2 mph 0.03 in Rain Light Rain
2:18 AM 73.9 °F - 73.0 °F 97% 29.89 in 1.8 mi SSE 15.0 mph - 0.12 in Rain Heavy Rain
2:29 AM 73.9 °F - 73.9 °F 100% 29.89 in 3.0 mi South 11.5 mph - 0.20 in Rain Heavy Rain
2:53 AM 75.0 °F - 73.9 °F 96% 29.88 in 7.0 mi SE 10.4 mph - 0.21 in Rain Light Rain
3:53 AM 77.0 °F - 75.9 °F 96% 29.87 in 10.0 mi SSE 6.9 mph - 0.00 in   Scattered Clouds
4:11 AM 78.1 °F - 77.0 °F 96% 29.86 in 10.0 mi SSE 8.1 mph - N/A   Mostly Cloudy
4:53 AM 78.1 °F - 78.1 °F 100% 29.85 in 10.0 mi South 6.9 mph - N/A   Scattered Clouds
5:53 AM 78.1 °F - 78.1 °F 100% 29.84 in 9.0 mi South 9.2 mph - N/A   Partly Cloudy
6:53 AM 78.1 °F - 77.0 °F 96% 29.85 in 9.0 mi South 10.4 mph - N/A   Mostly Cloudy
7:53 AM 79.0 °F - 77.0 °F 94% 29.87 in 9.0 mi SSW 10.4 mph - N/A   Overcast
8:53 AM 80.1 °F 85.8 °F 77.0 °F 90% 29.88 in 10.0 mi SSW 11.5 mph - N/A   Overcast
9:53 AM 82.0 °F 88.6 °F 75.0 °F 79% 29.88 in 10.0 mi South 16.1 mph - N/A   Mostly Cloudy
10:53 AM 86.0 °F 95.1 °F 75.0 °F 70% 29.87 in 10.0 mi SSW 16.1 mph 26.5 mph N/A   Mostly Cloudy
11:53 AM 88.0 °F 96.5 °F 73.9 °F 63% 29.86 in 10.0 mi SSW 20.7 mph 28.8 mph N/A   Partly Cloudy
12:53 PM 88.0 °F 96.5 °F 73.9 °F 63% 29.84 in 10.0 mi SSW 20.7 mph 29.9 mph N/A   Mostly Cloudy
1:53 PM 90.0 °F 99.0 °F 73.9 °F 59% 29.82 in 10.0 mi SSW 21.9 mph 29.9 mph N/A   Mostly Cloudy
2:53 PM 91.0 °F 99.3 °F 73.0 °F 55% 29.78 in 10.0 mi SSW 24.2 mph 34.5 mph N/A   Mostly Cloudy
3:53 PM 89.1 °F 100.2 °F 75.9 °F 65% 29.77 in 10.0 mi SW 23.0 mph 36.8 mph 0.01 in   Mostly Cloudy
4:53 PM 89.1 °F 98.0 °F 73.9 °F 61% 29.76 in 10.0 mi SW 21.9 mph 34.5 mph N/A   Mostly Cloudy
5:53 PM 82.9 °F 89.4 °F 73.9 °F 74% 29.78 in 10.0 mi WNW 20.7 mph 35.7 mph N/A   Mostly Cloudy
5:56 PM 81.0 °F 85.8 °F 73.0 °F 77% 29.78 in 10.0 mi WNW 19.6 mph 35.7 mph N/A   Overcast
6:11 PM 77.0 °F - 73.0 °F 88% 29.80 in 10.0 mi WNW 19.6 mph 34.5 mph N/A   Overcast
6:31 PM 75.9 °F - 69.1 °F 79% 29.80 in 10.0 mi WNW 17.3 mph 29.9 mph N/A   Overcast
6:53 PM 75.0 °F - 66.9 °F 76% 29.82 in 10.0 mi WNW 19.6 mph 29.9 mph N/A   Overcast
7:53 PM 73.0 °F - 68.0 °F 84% 29.84 in 10.0 mi West 12.7 mph - N/A   Overcast
8:53 PM 72.0 °F - 68.0 °F 87% 29.86 in 10.0 mi West 13.8 mph - 0.00 in Rain Light Rain
9:53 PM 70.0 °F - 68.0 °F 93% 29.89 in 10.0 mi West 11.5 mph - 0.01 in   Mostly Cloudy
10:53 PM 69.1 °F - 66.9 °F 93% 29.91 in 10.0 mi West 13.8 mph - N/A   Overcast
11:53 PM 70.0 °F - 66.0 °F 87% 29.89 in 10.0 mi West 11.5 mph - N/A   Mostly Cloudy